Home > Weather > Mistelbach > Past weeks

Flag for Austria Past Weather in Mistelbach, Lower Austria, Austria — Yesterday and Last 2 Weeks

Now
60 °F

Rain. Light fog.


Feels Like: 60 °F
Forecast: 55 / 76 °F
Wind: 5 mph from West

Location: Wien / Hohe Warte

Current Time: Jun 27, 2016 at 11:41:23 AM

Latest Report: Jun 27, 2016 at 10:00 AM


Visibility: 6 mi

Pressure: 30.07 "Hg

Humidity: 92%

Dew Point: 58 °F

Location of MistelbachLocation

Past Weather in Mistelbach — Graph

°F

Mistelbach Temperature Yesterday

Maximum temperature yesterday: 75 °F (at 2:00 PM)
Minimum temperature yesterday: 65 °F (at 5:00 AM)
Average temperature yesterday: 70 °F

High & Low Weather Summary for the Past Weeks

 TemperatureHumidityPressure
High91 °F (Jun 24, 5:00 PM)96% (Jun 21, 4:00 AM)30.27 "Hg (Jun 21, 4:00 AM)
Low56 °F (Jun 21, 5:00 AM)37% (Jun 23, 6:00 PM)29.47 "Hg (Jun 17, 5:00 AM)
Average69 °F70%29.91 "Hg
* Reported Jun 12 10:00 AM — Jun 27 10:00 AM, Mistelbach, Weather by CustomWeather, © 2016

Note: Actual official high and low records may vary slightly from our data, if they occured in-between our weather recording intervals... More about our weather records

Advertising

Mistelbach Weather History for the Previous 24 Hours

Scroll right to see more
 ConditionsComfort  
Time TempWeatherWind HumidityBarometerVisibility
10:00 AM
Mon, Jun 27
60 °FRain. Light fog.5 mph92%30.07 "Hg6 mi
9:00 AM60 °FRain. Light fog.7 mph92%30.06 "Hg6 mi
8:00 AM62 °FLight rain. Overcast.7 mph84%30.05 "Hg8 mi
7:00 AM64 °FPartly sunny.6 mph84%30.03 "Hg12 mi
6:00 AM64 °FOvercast.6 mph84%30.02 "Hg12 mi
5:00 AM63 °FMild.5 mph85%30.02 "HgN/A
4:00 AM65 °FOvercast.3 mph81%30.02 "Hg12 mi
3:00 AM65 °FMild.5 mph80%30.01 "HgN/A
2:00 AM65 °FPassing clouds.5 mph78%30.03 "Hg16 mi
1:00 AM67 °FMild.5 mph75%30.01 "HgN/A
11:00 PM
Sun, Jun 26
68 °FMild.3 mph72%30.01 "HgN/A
10:00 PM69 °FPassing clouds.2 mph77%30.01 "Hg19 mi
9:00 PM70 °FOvercast.1 mph74%30.00 "Hg31 mi
8:00 PM71 °FMild.2 mph70%29.99 "HgN/A
7:00 PM72 °FOvercast.2 mph66%29.97 "Hg37 mi
6:00 PM74 °FPartly sunny.3 mph63%29.99 "Hg37 mi
5:00 PM74 °FMild.3 mph62%29.98 "HgN/A
4:00 PM75 °FPartly sunny.3 mph63%29.99 "Hg34 mi
3:00 PM74 °FMild.3 mph66%30.00 "HgN/A
2:00 PM75 °FOvercast.6 mph63%30.01 "Hg34 mi
1:00 PM72 °FMild.5 mph66%30.02 "HgN/A
12:00 PM72 °FMild.5 mph69%30.02 "HgN/A
11:00 AM71 °FOvercast.5 mph72%30.02 "Hg31 mi
Weather by CustomWeather, © 2016

See weather overviewHow to use our weather pages